Vorticity
2 4 3 3 6 3 7 13 2 5 9 6 6 10 11 7 6 1 0 3 -2 -1
4 6 9 1 2 3 2 5 12 13 -2 -4 2 1 -0 -3 -4 -3 7 14 9 13
2 4 2 -2 2 5 4 9 14 10 8 8 3 7 8 5 5 7 9 4 0 2
2 -3 1 6 8 2 8 5 3 -1 -1 0 9 4 4 4 7 5 8 9 8 5
7 6 3 10 4 3 4 9 -1 16 -10 1 4 4 2 1 7 12 7 11 14 0
38 12 1 4 0 -7 3 -2 -4 3 8 -8 6 8 -1 11 14 13 8 2 7 4
16 2 -2 15 7 14 6 9 23 5 -1 20 7 4 15 2 18 15 11 8 5 10
6 19 24 8 -6 -2 3 -3 14 14 8 13 6 1 3 1 -1 1 2 1 7 7
9 5 11 14 32 25 17 12 10 -3 8 2 13 8 -7 -5 -5 -2 -0 1 -2 -0
10 7 12 -11 9 5 8 13 8 17 7 9 -6 -0 6 1 2 4 6 8 1 9
22 12 15 15 11 1 5 -3 -4 4 -1 6 2 6 32 17 15 18 13 7 9 22
4 -10 40 20 36 21 9 11 11 19 8 14 20 10 13 12 24 -1 7 17 29 -10
14 21 6 9 -4 17 22 25 31 0 28 21 9 31 13 -12 -5 -5 8 -2 10 25
19 24 20 22 16 13 -3 -21 -5 19 8 9 -1 -14 -25 -11 18 -9 -7 -12 -6 14
Height
5771 5775 5779 5783 5786 5790 5793 5795 5797 5799 5800 5803 5805 5808 5809 5810 5811 5812 5812 5812 5812 5811
5757 5762 5767 5771 5774 5778 5781 5785 5787 5790 5792 5792 5795 5797 5799 5799 5800 5800 5801 5801 5801 5801
5743 5748 5753 5757 5761 5764 5769 5772 5774 5777 5780 5781 5782 5784 5784 5786 5787 5788 5790 5792 5791 5789
5728 5733 5738 5743 5747 5750 5754 5757 5760 5763 5765 5767 5769 5771 5771 5771 5773 5774 5776 5778 5777 5777
5711 5716 5721 5726 5731 5735 5739 5741 5746 5748 5750 5751 5754 5755 5756 5756 5756 5759 5761 5763 5763 5761
5694 5700 5705 5711 5714 5716 5721 5724 5727 5730 5732 5733 5737 5738 5741 5739 5741 5742 5744 5746 5748 5749
5675 5681 5686 5692 5697 5699 5705 5706 5710 5711 5713 5715 5720 5720 5723 5725 5725 5726 5728 5730 5733 5733
5659 5662 5666 5671 5678 5683 5687 5689 5693 5695 5696 5700 5702 5705 5706 5708 5709 5712 5713 5714 5716 5717
5643 5646 5650 5653 5657 5662 5667 5671 5675 5678 5681 5684 5686 5688 5691 5692 5693 5694 5695 5697 5698 5699
5626 5628 5633 5635 5639 5642 5646 5652 5656 5659 5662 5664 5667 5669 5670 5672 5674 5675 5678 5679 5681 5683
5605 5609 5613 5616 5619 5622 5626 5630 5634 5638 5642 5646 5647 5649 5652 5655 5657 5658 5659 5660 5661 5663
5587 5588 5591 5593 5597 5600 5605 5608 5611 5615 5619 5624 5628 5628 5631 5634 5635 5638 5640 5642 5645 5646
5571 5572 5574 5575 5577 5580 5582 5586 5588 5593 5597 5601 5608 5608 5611 5613 5617 5620 5620 5623 5626 5627
5554 5555 5557 5557 5559 5562 5564 5567 5569 5574 5578 5582 5584 5585 5586 5590 5595 5597 5598 5602 5604 5607